Dutch Harbor, AK

1:45 AM AKDT on June 25, 2017 (GMT -0800)
Unalaska

Weather History for PADU - April, 2014

Change the Weather History Date:

Thursday, April 3, 2014

  Actual Average Record
Temperature  
Mean Temperature 40 °F -  
Max Temperature 44 °F 41 °F 55 °F (2015)
Min Temperature 37 °F 30 °F 21 °F (1988)
Degree Days  
Heating Degree Days 25    
Moisture  
Dew Point 35 °F    
Average Humidity 82    
Maximum Humidity 93    
Minimum Humidity 70    
Precipitation  
Precipitation 0.06 in - - ()
Sea Level Pressure  
Sea Level Pressure 29.16 in    
Wind  
Wind Speed 7 mph (SSW)    
Max Wind Speed 17 mph    
Max Gust Speed 29 mph    
Visibility 10 miles    
Events Rain    
Averages and records for this station are not official NWS values.
T = Trace of Precipitation, MM = Missing Value Source: NWS Daily Summary

Daily Weather History Graph

Daily Weather History Graph

Search for Another Location

Airport or City:

Trip Planner

Search our weather history database for the weather conditions in past years. The results will help you decide how hot, cold, wet, or windy it might be!

Date:

Astronomy

Apr. 03, 2014 Rise Set
Actual Time 8:33 AM AKDT 9:46 PM AKDT
Civil Twilight 7:57 AM AKDT 10:22 PM AKDT
Nautical Twilight 7:13 AM AKDT 11:06 PM AKDT
Astronomical Twilight 6:25 AM AKDT 11:55 PM AKDT
Moon 10:42 AM AKDT (4/3) 1:49 AM AKDT (4/3)
Length of Visible Light 14h 25m
Length of Day
13h 12m
Waxing Crescent, 18% of the Moon is Illuminated
Apr 3
Waxing Crescent
Apr 7
First Quarter
Apr 14
Full
Apr 21
Last Quarter
Apr 28
New

Hourly Weather History & Observations

Time (AKDT) Temp. Windchill Dew Point Humidity Pressure Visibility Wind Dir Wind Speed Gust Speed Precip Events Conditions
12:15 AM 39.2 °F 34.2 °F 30.2 °F 70% 29.35 in 10.0 mi Variable 6.9 mph - N/A   Mostly Cloudy
12:56 AM 39.0 °F 31.8 °F 32.0 °F 76% 29.34 in 10.0 mi SE 11.5 mph 18.4 mph N/A   Overcast
1:56 AM 39.9 °F 31.1 °F 33.1 °F 77% 29.30 in 10.0 mi SE 17.3 mph 28.8 mph 0.00 in Rain Light Rain
2:13 AM 39.2 °F 31.2 °F 33.8 °F 81% 29.27 in 10.0 mi SE 13.8 mph 24.2 mph 0.00 in   Overcast
2:29 AM 39.2 °F 32.0 °F 33.8 °F 81% 29.26 in 10.0 mi ESE 11.5 mph 20.7 mph 0.00 in Rain Light Rain
2:56 AM 39.9 °F 32.5 °F 34.0 °F 79% 29.25 in 10.0 mi ESE 12.7 mph 19.6 mph 0.00 in Rain Light Rain
3:56 AM 39.9 °F 31.4 °F 34.0 °F 79% 29.24 in 10.0 mi SSE 16.1 mph - 0.02 in Rain Light Rain
4:56 AM 39.0 °F 31.4 °F 33.1 °F 79% 29.21 in 10.0 mi SSE 12.7 mph - 0.03 in Rain Light Rain
5:56 AM 37.9 °F 32.1 °F 33.1 °F 83% 29.18 in 10.0 mi South 8.1 mph - 0.01 in Rain Light Rain
6:12 AM 39.2 °F 34.2 °F 33.8 °F 81% 29.15 in 10.0 mi SE 6.9 mph - 0.00 in Rain Light Rain
6:48 AM 39.2 °F 35.0 °F 35.6 °F 87% 29.14 in 10.0 mi South 5.8 mph - 0.00 in   Overcast
6:56 AM 39.0 °F 35.7 °F 35.1 °F 86% 29.15 in 10.0 mi South 4.6 mph - 0.00 in   Overcast
6:58 AM 39.2 °F 35.0 °F 35.6 °F 87% 29.13 in 10.0 mi South 5.8 mph - N/A   Overcast
7:54 AM 37.4 °F 32.8 °F 35.6 °F 93% 29.11 in 7.0 mi West 5.8 mph - 0.00 in Rain Light Rain
7:56 AM 37.9 °F 33.5 °F 35.1 °F 89% 29.13 in 7.0 mi West 5.8 mph - 0.00 in Rain Light Rain
8:24 AM 37.4 °F 32.8 °F 35.6 °F 93% 29.11 in 6.0 mi West 5.8 mph - 0.00 in Rain Light Rain
8:53 AM 37.4 °F - 35.6 °F 93% 29.10 in 8.0 mi Calm Calm - 0.00 in Rain Light Rain
8:56 AM 37.9 °F - 35.1 °F 89% 29.12 in 8.0 mi Calm Calm - 0.00 in Rain Light Rain
9:47 AM 39.2 °F - 35.6 °F 87% 29.10 in 10.0 mi Calm Calm - 0.00 in   Overcast
10:11 AM 39.2 °F - 35.6 °F 87% 29.10 in 10.0 mi Calm Calm - N/A   Overcast
10:56 AM 39.0 °F - 35.1 °F 86% 29.12 in 10.0 mi Calm Calm - N/A   Overcast
11:38 AM 41.0 °F - 35.6 °F 81% 29.10 in 10.0 mi Calm Calm - N/A   Overcast
11:56 AM 39.9 °F 37.8 °F 36.0 °F 86% 29.12 in 10.0 mi West 3.5 mph - N/A   Overcast
11:57 AM 41.0 °F 39.0 °F 35.6 °F 81% 29.10 in 10.0 mi West 3.5 mph - N/A   Overcast
11:58 AM 41.0 °F 39.0 °F 35.6 °F 81% 29.10 in 10.0 mi West 3.5 mph - N/A   Overcast
12:31 PM 42.8 °F 41.1 °F 35.6 °F 76% 29.10 in 10.0 mi WNW 3.5 mph - N/A   Overcast
12:56 PM 42.1 °F - 36.0 °F 79% 29.12 in 10.0 mi Calm Calm - N/A   Overcast
1:44 PM 42.8 °F 41.1 °F 37.4 °F 81% 29.11 in 10.0 mi Variable 3.5 mph - N/A   Overcast
1:56 PM 43.0 °F - 36.0 °F 76% 29.13 in 10.0 mi Calm Calm - N/A   Overcast
2:56 PM 43.0 °F - 37.0 °F 80% 29.14 in 10.0 mi Calm Calm - N/A   Overcast
3:56 PM 43.0 °F 37.7 °F 36.0 °F 76% 29.13 in 10.0 mi SW 9.2 mph - N/A   Overcast
4:56 PM 43.0 °F 38.8 °F 36.0 °F 76% 29.14 in 10.0 mi West 6.9 mph - N/A   Overcast
5:56 PM 43.0 °F 37.7 °F 35.1 °F 74% 29.14 in 10.0 mi North 9.2 mph - N/A   Overcast
7:56 PM 41.0 °F 36.4 °F 34.0 °F 76% 29.14 in 10.0 mi NNW 6.9 mph - 0.00 in Rain Light Rain
8:56 PM 41.0 °F 35.8 °F 35.1 °F 79% 29.15 in 10.0 mi NNW 8.1 mph - 0.00 in Rain Light Rain
9:56 PM 39.9 °F - 35.1 °F 83% 29.15 in 10.0 mi Calm Calm - 0.00 in Rain Light Rain
10:56 PM 39.9 °F 35.8 °F 34.0 °F 79% 29.16 in 10.0 mi ENE 5.8 mph - 0.00 in Rain Light Rain
11:56 PM 39.9 °F 36.7 °F 34.0 °F 79% 29.16 in 10.0 mi ENE 4.6 mph - 0.00 in   Overcast